Time,TemperatureF,DewpointF,PressureIn,WindDirection,WindDirectionDegrees,WindSpeedMPH,WindSpeedGustMPH,Humidity,HourlyPrecipIn,Conditions,Clouds,dailyrainin,SoftwareType,DateUTC
2013-03-30 00:12:00,35.5,30.0,32.50,WNW,296,7.0,14.0,79,0.00,,,0.00,weatherlink.com 1.10,2013-03-30 06:12:00,
2013-03-30 00:27:00,35.4,30.0,32.50,WNW,300,8.0,11.0,79,0.00,,,0.00,weatherlink.com 1.10,2013-03-30 06:27:00,
2013-03-30 00:42:00,35.6,29.0,32.50,WNW,291,10.0,10.0,78,0.00,,,0.00,weatherlink.com 1.10,2013-03-30 06:42:00,
2013-03-30 00:57:00,35.3,30.0,32.50,WNW,299,8.0,11.0,80,0.00,,,0.00,weatherlink.com 1.10,2013-03-30 06:57:00,
2013-03-30 01:12:00,34.8,30.0,32.50,WNW,290,6.0,9.0,82,0.00,,,0.00,weatherlink.com 1.10,2013-03-30 07:12:00,
2013-03-30 01:27:00,35.0,29.0,32.50,West,276,2.0,7.0,80,0.00,,,0.00,weatherlink.com 1.10,2013-03-30 07:27:00,
2013-03-30 01:42:00,35.4,30.0,32.50,West,275,4.0,9.0,79,0.00,,,0.00,weatherlink.com 1.10,2013-03-30 07:42:00,
2013-03-30 01:57:00,34.9,30.0,32.50,WNW,287,7.0,7.0,82,0.00,,,0.00,weatherlink.com 1.10,2013-03-30 07:57:00,
2013-03-30 02:13:00,34.9,30.0,32.50,WNW,293,7.0,10.0,83,0.00,,,0.00,weatherlink.com 1.10,2013-03-30 08:13:00,
2013-03-30 02:28:00,35.3,29.0,32.50,WNW,290,5.0,11.0,79,0.00,,,0.00,weatherlink.com 1.10,2013-03-30 08:28:00,
2013-03-30 02:43:00,35.2,30.0,32.50,WNW,297,5.0,10.0,80,0.00,,,0.00,weatherlink.com 1.10,2013-03-30 08:43:00,
2013-03-30 02:58:00,34.8,30.0,32.50,WNW,282,9.0,10.0,83,0.00,,,0.00,weatherlink.com 1.10,2013-03-30 08:58:00,
2013-03-30 03:13:00,34.0,30.0,32.50,West,279,6.0,9.0,86,0.00,,,0.00,weatherlink.com 1.10,2013-03-30 09:13:00,
2013-03-30 03:28:00,34.0,30.0,32.50,WNW,300,6.0,11.0,85,0.00,,,0.00,weatherlink.com 1.10,2013-03-30 09:28:00,
2013-03-30 03:43:00,33.6,30.0,32.50,WNW,290,10.0,10.0,87,0.00,,,0.00,weatherlink.com 1.10,2013-03-30 09:43:00,
2013-03-30 03:58:00,33.4,30.0,32.50,WNW,302,7.0,11.0,88,0.00,,,0.00,weatherlink.com 1.10,2013-03-30 09:58:00,
2013-03-30 04:28:00,33.4,30.0,32.50,West,267,8.0,11.0,88,0.00,,,0.00,weatherlink.com 1.10,2013-03-30 10:28:00,
2013-03-30 04:43:00,33.5,30.0,32.50,WNW,289,11.0,13.0,88,0.00,,,0.00,weatherlink.com 1.10,2013-03-30 10:43:00,
2013-03-30 04:58:00,33.9,30.0,32.50,WNW,288,9.0,12.0,85,0.00,,,0.00,weatherlink.com 1.10,2013-03-30 10:58:00,
2013-03-30 05:13:00,34.2,30.0,32.50,WNW,295,8.0,10.0,83,0.00,,,0.00,weatherlink.com 1.10,2013-03-30 11:13:00,
2013-03-30 05:28:00,34.1,30.0,32.50,WNW,290,7.0,10.0,83,0.00,,,0.00,weatherlink.com 1.10,2013-03-30 11:28:00,
2013-03-30 05:43:00,33.9,29.0,32.50,WNW,292,6.0,10.0,83,0.00,,,0.00,weatherlink.com 1.10,2013-03-30 11:43:00,
2013-03-30 05:58:00,34.1,29.0,32.50,WNW,300,7.0,11.0,81,0.00,,,0.00,weatherlink.com 1.10,2013-03-30 11:58:00,
2013-03-30 06:13:00,33.9,29.0,32.50,WNW,288,7.0,9.0,81,0.00,,,0.00,weatherlink.com 1.10,2013-03-30 12:13:00,
2013-03-30 06:28:00,33.6,29.0,32.50,WNW,296,8.0,10.0,83,0.00,,,0.00,weatherlink.com 1.10,2013-03-30 12:28:00,
2013-03-30 06:43:00,33.6,29.0,32.50,West,281,4.0,8.0,82,0.00,,,0.00,weatherlink.com 1.10,2013-03-30 12:43:00,
2013-03-30 06:58:00,33.4,29.0,32.50,WNW,284,4.0,5.0,82,0.00,,,0.00,weatherlink.com 1.10,2013-03-30 12:58:00,
2013-03-30 07:13:00,33.3,29.0,32.50,WNW,286,4.0,6.0,83,0.00,,,0.00,weatherlink.com 1.10,2013-03-30 13:13:00,
2013-03-30 07:28:00,33.2,29.0,32.50,NW,304,4.0,7.0,84,0.00,,,0.00,weatherlink.com 1.10,2013-03-30 13:28:00,
2013-03-30 07:43:00,33.2,29.0,32.50,WNW,284,2.0,4.0,84,0.00,,,0.00,weatherlink.com 1.10,2013-03-30 13:43:00,
2013-03-30 07:58:00,34.3,28.0,32.50,West,273,4.0,6.0,79,0.00,,,0.00,weatherlink.com 1.10,2013-03-30 13:58:00,
2013-03-30 08:13:00,34.4,29.0,32.50,SW,227,3.0,6.0,80,0.00,,,0.00,weatherlink.com 1.10,2013-03-30 14:13:00,
2013-03-30 08:28:00,34.6,30.0,32.50,SSW,194,6.0,7.0,82,0.00,,,0.00,weatherlink.com 1.10,2013-03-30 14:28:00,
2013-03-30 08:43:00,34.8,30.0,32.50,South,187,5.0,7.0,83,0.00,,,0.00,weatherlink.com 1.10,2013-03-30 14:43:00,
2013-03-30 08:58:00,34.8,30.0,32.50,SSW,196,6.0,8.0,84,0.00,,,0.00,weatherlink.com 1.10,2013-03-30 14:58:00,
2013-03-30 09:13:00,35.3,31.0,32.50,South,177,3.0,7.0,84,0.00,,,0.00,weatherlink.com 1.10,2013-03-30 15:13:00,
2013-03-30 09:28:00,35.8,31.0,32.50,SSE,163,3.0,5.0,83,0.00,,,0.00,weatherlink.com 1.10,2013-03-30 15:28:00,
2013-03-30 09:43:00,35.5,31.0,32.50,South,176,6.0,8.0,82,0.00,,,0.00,weatherlink.com 1.10,2013-03-30 15:43:00,
2013-03-30 09:58:00,36.4,31.0,32.50,SSW,195,7.0,8.0,82,0.00,,,0.00,weatherlink.com 1.10,2013-03-30 15:58:00,
2013-03-30 10:14:00,36.0,30.0,32.50,SW,230,2.0,8.0,78,0.00,,,0.00,weatherlink.com 1.10,2013-03-30 16:14:00,
2013-03-30 10:31:00,36.0,30.0,32.50,WSW,245,3.0,8.0,79,0.00,,,0.00,weatherlink.com 1.10,2013-03-30 16:31:00,
2013-03-30 10:44:00,37.2,32.0,32.50,SSW,202,7.0,7.0,80,0.00,,,0.00,weatherlink.com 1.10,2013-03-30 16:44:00,
2013-03-30 10:59:00,37.0,30.0,32.50,WSW,240,4.0,8.0,77,0.00,,,0.00,weatherlink.com 1.10,2013-03-30 16:59:00,
2013-03-30 11:14:00,38.1,30.0,32.50,SW,231,4.0,7.0,73,0.00,,,0.00,weatherlink.com 1.10,2013-03-30 17:14:00,
2013-03-30 11:29:00,37.6,30.0,32.50,North,5,0.0,7.0,74,0.00,,,0.00,weatherlink.com 1.10,2013-03-30 17:29:00,
2013-03-30 11:44:00,39.1,30.0,32.50,WNW,294,2.0,4.0,69,0.00,,,0.00,weatherlink.com 1.10,2013-03-30 17:44:00,
2013-03-30 11:59:00,39.0,31.0,32.50,SW,227,2.0,8.0,74,0.00,,,0.00,weatherlink.com 1.10,2013-03-30 17:59:00,
2013-03-30 12:14:00,39.2,30.0,32.50,SW,235,2.0,13.0,69,0.00,,,0.00,weatherlink.com 1.10,2013-03-30 18:14:00,
2013-03-30 12:29:00,40.1,30.0,32.50,SSE,160,7.0,11.0,67,0.00,,,0.00,weatherlink.com 1.10,2013-03-30 18:29:00,
2013-03-30 12:44:00,40.2,29.0,32.50,West,263,7.0,13.0,65,0.00,,,0.00,weatherlink.com 1.10,2013-03-30 18:44:00,
2013-03-30 12:59:00,41.7,29.0,32.50,NW,304,1.0,9.0,62,0.00,,,0.00,weatherlink.com 1.10,2013-03-30 18:59:00,
2013-03-30 13:14:00,41.6,27.0,32.50,South,178,5.0,15.0,57,0.00,,,0.00,weatherlink.com 1.10,2013-03-30 19:14:00,
2013-03-30 13:29:00,42.9,30.0,32.50,SSW,201,8.0,12.0,61,0.00,,,0.00,weatherlink.com 1.10,2013-03-30 19:29:00,
2013-03-30 13:44:00,43.7,29.0,32.50,SW,217,1.0,8.0,56,0.00,,,0.00,weatherlink.com 1.10,2013-03-30 19:44:00,
2013-03-30 13:59:00,43.1,28.0,32.50,SW,228,9.0,13.0,56,0.00,,,0.00,weatherlink.com 1.10,2013-03-30 19:59:00,
2013-03-30 14:14:00,42.4,28.0,32.50,SW,224,7.0,16.0,57,0.00,,,0.00,weatherlink.com 1.10,2013-03-30 20:14:00,
2013-03-30 14:29:00,42.7,29.0,32.50,SSW,207,10.0,17.0,58,0.00,,,0.00,weatherlink.com 1.10,2013-03-30 20:29:00,
2013-03-30 14:44:00,44.9,29.0,32.50,WSW,242,9.0,13.0,54,0.00,,,0.00,weatherlink.com 1.10,2013-03-30 20:44:00,
2013-03-30 14:59:00,44.2,28.0,32.50,South,189,7.0,17.0,53,0.00,,,0.00,weatherlink.com 1.10,2013-03-30 20:59:00,
2013-03-30 15:14:00,45.1,28.0,32.50,SW,232,4.0,14.0,52,0.00,,,0.00,weatherlink.com 1.10,2013-03-30 21:14:00,
2013-03-30 15:29:00,44.9,28.0,32.50,WSW,255,6.0,17.0,51,0.00,,,0.00,weatherlink.com 1.10,2013-03-30 21:29:00,
2013-03-30 15:44:00,45.6,28.0,32.50,SW,216,12.0,16.0,50,0.00,,,0.00,weatherlink.com 1.10,2013-03-30 21:44:00,
2013-03-30 15:59:00,45.2,27.0,32.50,West,266,1.0,14.0,49,0.00,,,0.00,weatherlink.com 1.10,2013-03-30 21:59:00,
2013-03-30 16:14:00,45.7,27.0,32.50,SW,228,12.0,18.0,49,0.00,,,0.00,weatherlink.com 1.10,2013-03-30 22:14:00,
2013-03-30 16:29:00,46.1,28.0,32.50,SSW,199,7.0,15.0,50,0.00,,,0.00,weatherlink.com 1.10,2013-03-30 22:29:00,
2013-03-30 16:44:00,45.8,27.0,32.50,SW,221,16.0,19.0,48,0.00,,,0.00,weatherlink.com 1.10,2013-03-30 22:44:00,
2013-03-30 16:59:00,45.9,27.0,32.50,ESE,123,2.0,16.0,47,0.00,,,0.00,weatherlink.com 1.10,2013-03-30 22:59:00,
2013-03-30 17:14:00,46.0,26.0,32.50,South,190,8.0,17.0,46,0.00,,,0.00,weatherlink.com 1.10,2013-03-30 23:14:00,
2013-03-30 17:29:00,46.1,26.0,32.50,SSW,212,8.0,18.0,46,0.00,,,0.00,weatherlink.com 1.10,2013-03-30 23:29:00,
2013-03-30 17:44:00,46.4,26.0,32.50,SW,221,13.0,17.0,46,0.00,,,0.00,weatherlink.com 1.10,2013-03-30 23:44:00,
2013-03-30 17:59:00,46.4,26.0,32.50,SW,230,8.0,13.0,45,0.00,,,0.00,weatherlink.com 1.10,2013-03-30 23:59:00,
2013-03-30 18:14:00,46.2,26.0,32.50,SSW,203,8.0,17.0,45,0.00,,,0.00,weatherlink.com 1.10,2013-03-31 00:14:00,
2013-03-30 18:29:00,46.0,26.0,32.50,WSW,240,13.0,15.0,45,0.00,,,0.00,weatherlink.com 1.10,2013-03-31 00:29:00,
2013-03-30 18:44:00,46.1,26.0,32.50,SW,214,12.0,13.0,45,0.00,,,0.00,weatherlink.com 1.10,2013-03-31 00:44:00,
2013-03-30 18:59:00,45.7,25.0,32.50,SW,229,9.0,13.0,45,0.00,,,0.00,weatherlink.com 1.10,2013-03-31 00:59:00,
2013-03-30 19:14:00,45.6,25.0,32.50,SSW,213,8.0,11.0,45,0.00,,,0.00,weatherlink.com 1.10,2013-03-31 01:14:00,
2013-03-30 19:29:00,45.0,25.0,32.50,SW,223,6.0,9.0,46,0.00,,,0.00,weatherlink.com 1.10,2013-03-31 01:29:00,
2013-03-30 19:44:00,44.5,25.0,32.50,SW,228,4.0,7.0,47,0.00,,,0.00,weatherlink.com 1.10,2013-03-31 01:44:00,
2013-03-30 19:59:00,44.2,24.0,32.50,WNW,284,8.0,9.0,45,0.00,,,0.00,weatherlink.com 1.10,2013-03-31 01:59:00,
2013-03-30 20:14:00,43.4,23.0,32.50,WNW,284,5.0,10.0,44,0.00,,,0.00,weatherlink.com 1.10,2013-03-31 02:14:00,
2013-03-30 20:29:00,43.2,23.0,32.50,WNW,296,7.0,10.0,45,0.00,,,0.00,weatherlink.com 1.10,2013-03-31 02:29:00,
2013-03-30 20:44:00,43.1,23.0,32.50,WNW,294,7.0,10.0,45,0.00,,,0.00,weatherlink.com 1.10,2013-03-31 02:44:00,
2013-03-30 20:59:00,43.0,24.0,32.50,WNW,292,11.0,12.0,47,0.00,,,0.00,weatherlink.com 1.10,2013-03-31 02:59:00,
2013-03-30 21:14:00,42.8,25.0,32.50,WNW,296,5.0,12.0,49,0.00,,,0.00,weatherlink.com 1.10,2013-03-31 03:14:00,
2013-03-30 21:30:00,42.4,25.0,32.50,WNW,294,9.0,12.0,51,0.00,,,0.00,weatherlink.com 1.10,2013-03-31 03:30:00,
2013-03-30 21:45:00,42.3,26.0,32.50,WNW,296,12.0,13.0,52,0.00,,,0.00,weatherlink.com 1.10,2013-03-31 03:45:00,
2013-03-30 22:00:00,41.8,26.0,32.50,NW,309,7.0,12.0,54,0.00,,,0.00,weatherlink.com 1.10,2013-03-31 04:00:00,
2013-03-30 22:15:00,41.7,26.0,32.50,NW,313,7.0,14.0,55,0.00,,,0.00,weatherlink.com 1.10,2013-03-31 04:15:00,
2013-03-30 22:30:00,41.5,26.0,32.50,WNW,292,9.0,13.0,55,0.00,,,0.00,weatherlink.com 1.10,2013-03-31 04:30:00,
2013-03-30 22:45:00,41.1,26.0,32.50,WNW,298,10.0,13.0,55,0.00,,,0.00,weatherlink.com 1.10,2013-03-31 04:45:00,
2013-03-30 23:00:00,41.1,25.0,32.50,WNW,302,7.0,13.0,54,0.00,,,0.00,weatherlink.com 1.10,2013-03-31 05:00:00,
2013-03-30 23:15:00,40.9,26.0,32.50,WNW,290,10.0,15.0,55,0.00,,,0.00,weatherlink.com 1.10,2013-03-31 05:15:00,
2013-03-30 23:30:00,40.7,25.0,32.50,WNW,296,13.0,15.0,55,0.00,,,0.00,weatherlink.com 1.10,2013-03-31 05:30:00,
2013-03-30 23:45:00,40.7,26.0,32.50,NW,306,10.0,15.0,56,0.00,,,0.00,weatherlink.com 1.10,2013-03-31 05:45:00,